ECMWFFLT1_850_spd_021.txt.gz
Wind_Speed
14 14 13 11 9 7 7 9 7 5 5 4 5 5 6 8 8 9 9 7 6 5 6 7 7 8 8 8 9 9 10 11 10 10 10 12 14 14 14 12 8 7 13 19 19 18 20 19 15 13 13 10 7 6 7 7 7 6 5 5 5 6 8
12 12 12 10 9 9 10 11 8 6 4 5 7 6 5 6 7 9 7 5 5 7 8 7 8 9 9 9 9 8 9 8 8 9 9 10 12 14 14 13 10 10 14 18 18 16 17 18 14 11 11 9 9 10 11 10 6 4 4 6 7 6 7
11 10 10 9 10 12 12 12 11 7 4 5 7 6 5 4 6 9 9 6 5 7 9 7 9 11 10 9 9 9 8 7 7 8 8 9 10 12 14 14 13 15 18 19 19 16 14 13 12 11 11 13 16 16 13 10 7 4 3 4 4 4 5
10 10 10 9 10 12 13 12 11 8 5 6 7 7 5 2 3 9 10 9 7 9 11 8 7 10 11 9 10 11 9 8 8 8 9 9 9 12 14 13 13 16 18 19 20 18 15 14 16 16 16 16 17 16 14 11 7 4 2 2 4 5 5
11 10 10 11 10 11 12 11 9 7 6 6 7 8 7 4 4 7 8 9 9 10 11 9 6 9 12 10 11 11 10 10 9 9 9 8 9 11 13 12 11 13 14 15 19 19 15 15 18 19 18 16 14 14 15 12 8 5 3 2 5 7 7
11 11 11 11 10 10 10 9 8 5 5 5 5 6 6 7 8 7 6 7 9 9 8 7 7 10 10 9 10 10 10 10 10 10 10 11 13 15 15 13 13 12 10 12 18 18 16 16 18 19 19 17 16 17 16 13 10 7 2 4 7 9 9
12 11 11 10 9 8 8 8 8 5 5 5 3 6 8 10 10 9 7 6 7 8 6 6 9 10 8 9 9 9 10 12 13 14 16 16 16 16 15 14 14 13 10 10 15 18 19 20 19 18 19 20 20 20 18 14 10 6 2 2 6 9 9
12 12 12 10 8 8 9 9 8 6 7 7 4 6 10 9 9 8 6 6 8 10 11 10 10 10 10 11 11 12 14 16 18 19 19 17 16 15 14 14 15 14 12 13 15 16 18 21 18 15 18 23 22 19 16 14 9 5 3 1 3 8 9
13 11 11 10 8 9 10 10 8 8 9 8 5 5 9 9 9 7 5 8 13 13 12 12 12 11 12 12 13 15 17 17 19 20 19 16 16 16 16 16 15 15 14 14 15 15 16 19 17 14 15 19 22 20 17 14 11 7 3 0 3 6 8
12 9 8 8 7 8 9 8 8 9 8 7 5 5 8 9 8 8 7 11 16 14 12 13 12 10 11 13 14 15 17 16 17 18 18 16 16 16 17 16 16 15 14 15 17 20 21 20 17 14 11 15 22 23 20 17 13 10 6 1 3 5 7
10 8 7 7 6 7 7 6 7 8 7 6 5 4 7 9 8 8 10 13 16 15 13 14 12 10 12 14 14 14 15 16 17 18 17 16 16 15 15 16 17 16 15 17 20 19 19 18 15 10 9 15 21 19 17 17 15 11 8 5 2 3 4
10 7 7 6 5 6 6 5 4 6 6 5 4 5 7 8 8 8 10 13 14 14 14 14 12 11 13 14 12 12 13 15 17 19 18 16 15 13 13 16 18 18 16 16 17 16 15 16 13 8 8 14 17 14 12 14 15 13 9 5 2 1 3
10 7 7 6 5 6 6 4 2 3 4 2 3 6 6 6 6 6 9 12 13 13 13 13 11 12 13 13 11 11 12 14 17 18 17 15 14 14 16 16 17 18 16 15 16 15 14 12 9 6 7 11 12 11 10 9 11 13 9 4 3 2 1
9 8 7 5 6 7 6 3 1 1 2 2 4 6 5 5 5 5 8 11 13 13 12 11 11 12 13 12 12 13 15 16 17 17 15 15 17 18 18 18 17 17 17 16 16 14 12 9 6 5 6 9 11 11 8 6 7 10 9 3 2 4 4
9 8 7 6 7 8 5 2 1 2 2 4 7 7 6 5 5 6 8 10 11 12 12 12 13 13 14 14 15 17 18 18 18 17 15 16 18 18 17 16 17 18 18 16 15 13 10 8 7 6 7 8 9 8 6 6 6 7 7 3 3 6 5
8 8 7 8 9 8 4 2 1 1 2 6 8 8 6 5 7 7 6 7 9 12 13 14 14 15 17 16 16 17 17 18 18 17 15 15 16 16 14 13 14 16 16 15 14 12 8 7 7 7 7 6 6 6 4 4 5 4 4 3 4 7 5
8 9 8 9 10 7 3 2 2 2 3 6 9 9 7 7 8 6 4 6 9 12 14 13 14 17 19 17 15 15 15 17 18 16 14 13 13 14 12 11 10 12 13 12 13 13 9 9 10 9 8 6 4 4 4 5 5 4 4 4 4 4 4
8 9 9 9 9 7 4 3 4 4 6 8 10 10 8 8 9 7 5 6 8 11 12 11 12 16 19 17 16 15 14 15 15 14 12 11 10 10 11 10 10 10 12 12 13 14 11 10 10 8 8 8 6 6 6 6 6 4 4 5 5 4 4
8 8 8 8 8 6 4 4 6 7 8 9 10 9 8 9 11 10 7 7 7 8 9 9 10 14 17 17 16 15 14 14 13 12 10 10 9 9 8 9 9 9 11 11 12 13 12 12 12 8 8 9 7 7 7 7 7 5 3 4 6 6 5
10 8 7 7 6 4 3 5 8 9 8 9 9 8 8 9 11 12 11 10 9 8 8 8 10 12 15 16 16 15 14 14 14 13 11 10 9 8 7 8 8 9 10 11 12 13 13 12 13 11 8 8 8 8 8 9 10 8 5 5 5 6 5
12 10 10 10 8 6 4 5 8 10 9 8 9 9 7 8 11 11 11 11 10 10 8 8 10 11 13 14 15 15 15 14 14 15 14 12 11 10 9 9 9 9 9 11 12 12 12 11 13 14 12 9 8 9 10 11 11 10 9 7 6 6 7
13 13 13 13 12 10 9 8 8 10 12 9 10 11 9 8 10 10 9 10 10 9 8 7 9 10 11 13 14 14 15 14 15 16 16 16 14 13 13 12 11 11 10 11 11 11 12 12 13 15 15 13 11 11 12 12 11 11 11 9 9 9 8
11 13 13 14 14 12 11 11 9 11 14 10 8 11 10 8 9 10 9 10 10 10 9 9 9 9 10 12 13 14 16 16 16 17 17 17 17 17 16 15 14 13 13 13 13 12 12 13 13 15 16 16 15 14 13 12 12 12 12 11 12 11 11
7 9 10 10 11 11 11 11 10 12 15 14 10 11 12 11 12 11 10 10 11 12 12 12 12 12 12 12 13 15 17 18 18 19 19 19 20 19 19 18 17 16 16 15 15 14 14 13 14 15 15 16 16 16 16 14 13 13 13 13 13 14 14
6 8 8 7 7 8 9 10 11 12 14 17 16 14 14 14 15 16 14 13 13 14 14 14 15 16 15 15 16 17 19 20 20 20 21 21 21 22 21 20 20 20 19 18 17 16 16 16 16 17 17 17 18 18 18 18 17 17 16 15 15 15 15
6 6 5 4 5 5 4 5 8 9 11 14 16 17 17 17 17 18 18 17 17 18 17 16 17 18 19 19 20 21 22 23 22 21 22 22 23 24 24 23 23 23 21 20 19 18 18 19 20 20 19 18 18 19 20 19 19 18 18 18 17 17 17
10 9 7 5 2 1 2 3 4 5 6 8 10 13 15 17 18 20 20 20 20 21 21 20 19 20 21 22 23 24 24 26 26 25 25 24 24 26 27 26 26 24 22 21 21 21 21 21 22 22 21 20 20 20 20 19 19 18 18 19 19 19 19
10 9 9 8 6 4 2 2 3 4 6 7 9 10 11 13 15 17 20 22 22 23 23 23 23 23 24 25 26 26 27 28 29 29 29 28 27 28 29 28 26 25 24 23 23 23 23 23 22 23 23 22 20 19 18 17 17 17 17 18 19 20 20
7 6 4 3 3 3 2 2 2 3 4 6 8 10 11 12 13 13 15 18 21 24 25 25 25 26 27 28 28 29 30 32 32 33 33 32 31 30 30 28 28 28 26 25 24 24 24 23 22 24 24 22 19 17 16 15 15 15 16 17 17 18 18
3 4 4 5 6 6 6 6 6 7 7 6 7 10 12 13 14 14 14 15 17 20 22 23 24 25 27 29 29 30 32 33 34 35 35 35 34 33 31 30 30 30 26 24 23 23 24 25 25 25 26 23 19 16 14 14 13 13 13 14 14 14 14
3 4 5 7 8 10 10 11 11 11 11 11 12 13 15 16 16 17 17 17 17 18 19 19 19 21 24 26 28 30 31 32 33 35 36 36 35 34 33 32 33 32 28 26 26 24 26 28 28 26 25 23 19 16 14 13 14 13 13 12 12 11 11
7 7 8 10 11 12 12 13 14 14 15 16 16 16 17 17 18 18 19 19 20 20 20 19 18 19 20 22 24 26 27 29 31 33 34 35 35 35 34 33 33 33 32 33 33 30 29 30 27 24 23 21 18 15 15 15 14 13 13 12 10 9 9
11 11 12 13 14 15 16 17 18 18 18 19 19 20 19 19 19 19 19 21 22 23 23 22 21 21 21 21 22 23 24 25 27 29 31 32 34 36 36 37 37 36 35 37 35 30 28 29 26 23 22 19 17 16 16 15 14 12 11 10 9 10 11
16 16 17 17 18 19 20 21 22 22 22 22 22 22 23 23 24 23 22 23 24 26 26 25 25 24 24 24 24 24 24 25 25 27 28 30 33 36 37 39 40 38 36 36 32 27 26 27 26 24 21 18 16 16 15 14 12 11 11 11 11 13 14
18 19 20 21 22 23 23 23 23 23 23 23 23 23 23 24 25 25 24 24 25 28 28 27 26 27 27 28 27 25 24 24 24 25 26 28 31 34 36 36 35 32 31 30 26 24 25 25 25 24 20 17 16 15 14 13 13 12 13 13 14 14 13
18 19 20 21 22 24 25 25 25 24 23 23 22 22 21 21 22 24 24 24 25 27 28 26 25 26 27 28 26 23 23 23 23 24 26 27 29 31 32 30 26 24 24 23 20 20 22 24 25 23 20 17 15 14 13 14 14 14 14 14 14 12 11
17 18 18 19 20 22 23 24 25 24 24 23 23 22 21 19 20 22 23 24 25 26 28 28 26 25 25 26 25 23 22 23 24 24 24 26 27 28 27 25 23 24 23 21 19 20 23 24 23 21 19 17 15 14 14 14 15 15 15 14 13 12 11

ECMWFFLT1_850_spd_024.txt.gz
Wind_Speed
13 13 11 10 9 8 9 10 10 10 9 8 8 9 10 10 10 10 10 9 8 7 8 9 9 10 11 11 11 11 10 10 11 11 12 13 15 14 14 13 8 6 15 18 15 17 19 18 15 12 10 8 7 5 3 4 6 7 7 7 7 7 7
12 11 10 9 7 6 7 8 9 9 9 9 8 8 9 10 11 11 11 11 10 9 9 9 9 10 10 11 11 10 9 10 11 12 12 12 13 14 14 14 10 10 17 16 13 15 18 21 20 16 13 10 9 9 5 4 5 5 6 8 8 7 6
13 12 11 9 7 5 5 7 6 6 7 8 8 7 6 7 9 11 11 10 10 10 10 8 9 9 10 10 10 9 8 9 11 13 12 10 12 14 14 15 12 14 19 17 15 17 17 19 20 18 15 11 11 12 7 3 3 3 6 8 8 7 4
13 12 11 10 8 7 6 6 5 4 4 6 7 6 5 4 5 8 9 9 9 10 9 8 7 8 9 9 10 9 9 9 10 12 12 10 11 14 15 15 12 13 18 19 17 18 17 17 18 18 16 14 13 12 9 5 3 4 5 6 9 8 4
11 10 10 10 10 8 7 6 4 4 3 5 7 6 5 4 5 7 8 8 9 10 8 7 6 7 9 9 9 9 9 9 9 10 11 10 10 12 14 13 11 12 16 19 18 17 15 14 16 19 20 18 15 12 10 8 6 4 3 5 8 9 5
11 11 11 11 10 9 7 6 5 5 4 5 6 7 6 4 5 8 8 8 9 10 9 6 4 6 8 9 7 7 9 9 9 9 9 9 9 9 11 11 11 12 15 17 17 15 12 12 16 20 21 19 15 14 12 9 8 6 2 3 7 9 6
12 12 12 11 10 9 8 7 6 5 3 3 4 7 8 7 6 7 7 7 9 10 9 7 5 6 8 8 8 9 9 9 8 10 10 10 11 11 11 11 12 14 15 16 17 16 13 13 17 20 21 19 15 14 14 11 8 6 3 3 5 8 6
12 13 12 10 9 9 8 7 6 4 2 2 1 3 7 9 7 6 5 5 7 9 9 8 8 9 10 9 10 10 10 10 10 12 13 13 14 14 14 13 13 14 15 16 18 18 15 15 16 17 18 19 18 15 14 14 10 5 2 3 4 7 7
12 12 11 9 8 9 7 6 5 3 1 0 2 1 5 8 7 6 5 5 7 8 8 9 10 10 9 10 11 11 12 13 13 15 16 16 16 15 15 14 12 12 13 16 20 19 17 16 15 15 14 13 18 20 17 15 12 8 5 2 2 7 8
12 11 10 8 9 9 8 7 6 3 2 2 2 2 3 5 6 4 5 8 10 9 9 10 9 8 8 9 11 13 16 16 16 16 16 16 16 14 15 13 9 9 10 14 19 19 18 17 15 18 16 9 12 18 18 16 14 10 7 4 2 4 7
12 11 10 9 9 10 10 9 8 5 4 3 3 4 5 6 6 4 8 11 11 9 9 9 8 8 9 11 13 16 18 19 18 17 15 15 15 14 13 12 9 9 10 12 17 18 17 18 15 17 19 13 9 10 12 15 16 12 8 7 5 1 3
12 11 10 10 10 11 10 9 9 6 5 4 4 4 5 6 5 7 11 12 11 10 9 8 7 7 9 12 15 17 18 19 19 18 16 15 15 14 14 13 11 12 12 13 16 17 17 18 15 15 19 19 14 11 9 11 13 12 10 8 6 2 1
13 11 10 10 11 11 10 9 8 6 5 4 4 5 6 6 5 8 13 14 12 11 10 9 7 5 9 12 14 16 17 17 17 17 16 16 16 15 15 15 14 15 16 16 17 18 17 16 13 11 15 19 19 16 14 11 8 9 10 7 6 4 2
13 11 10 10 11 11 9 7 6 6 5 5 6 7 7 6 6 9 13 14 12 12 11 10 8 7 9 11 12 14 16 17 17 17 16 15 15 16 17 18 18 16 16 17 17 15 14 13 11 10 9 15 21 21 17 12 8 8 10 8 7 5 3
14 12 11 11 11 10 9 7 6 5 5 7 8 8 8 8 8 10 12 12 11 11 11 10 10 10 10 10 11 13 16 17 17 16 15 15 15 16 18 20 20 17 16 16 16 14 12 12 13 12 8 11 20 21 15 10 8 8 9 8 8 6 5
14 13 12 11 11 10 8 6 5 5 6 8 9 8 8 9 10 11 12 11 10 10 10 10 11 12 11 12 13 16 17 17 16 15 15 15 16 16 18 20 20 18 16 16 15 14 12 11 12 13 10 11 16 18 14 10 8 8 9 8 8 8 6
15 14 13 11 11 10 8 5 5 6 8 9 9 10 9 10 10 10 10 11 11 10 10 12 13 13 14 15 17 18 18 16 15 14 15 15 15 15 17 18 19 18 17 16 16 16 14 12 11 11 11 11 13 13 12 10 8 8 8 7 7 8 7
16 15 13 12 12 10 7 6 6 8 10 10 11 11 10 9 9 8 7 9 11 12 11 13 15 16 16 17 17 18 18 17 16 16 16 15 14 14 14 16 17 18 18 18 17 17 15 13 11 12 12 11 10 9 9 10 9 8 8 7 7 8 9
17 16 13 12 13 10 7 6 7 9 11 12 12 12 11 9 7 6 5 6 9 11 10 12 16 16 16 17 16 16 17 17 15 15 16 15 15 14 13 14 15 17 18 17 16 16 16 14 13 14 14 13 11 9 10 10 11 10 9 8 8 9 10
13 12 11 12 12 9 6 7 8 10 12 13 12 11 10 9 8 7 6 5 6 7 7 10 15 16 16 16 15 15 16 17 16 15 15 15 15 15 15 14 15 16 17 17 17 17 17 17 16 16 16 15 13 12 12 12 12 12 11 9 9 10 10
9 9 10 12 11 7 7 8 9 11 12 13 11 9 7 8 9 8 7 6 6 5 5 7 13 16 17 16 16 16 16 17 17 17 16 16 16 16 16 16 16 16 16 17 19 19 19 19 18 19 19 18 17 16 15 14 14 13 12 11 11 11 11
11 11 10 10 9 7 7 9 11 12 13 12 11 9 6 6 7 8 9 8 8 7 6 6 8 13 15 17 17 18 18 18 18 18 18 18 17 17 16 16 16 15 15 16 18 20 21 21 20 20 21 21 19 18 18 17 16 15 14 13 13 13 13
14 13 11 10 9 8 7 8 10 12 12 11 9 9 9 7 5 7 9 9 10 10 8 7 7 8 11 14 16 18 19 19 19 20 20 20 20 18 17 17 16 15 14 15 16 18 19 20 21 21 21 22 21 20 19 18 18 18 18 17 16 16 16
16 15 15 14 12 10 9 8 9 10 12 12 9 8 11 11 7 7 9 9 9 11 10 9 9 9 9 11 13 16 18 19 20 21 22 22 22 21 20 19 18 17 16 15 15 15 16 18 20 21 21 22 22 21 21 20 20 20 20 20 20 19 19
13 14 15 14 13 12 11 11 10 10 11 12 9 8 11 13 11 10 11 11 11 12 13 12 13 14 13 13 13 14 15 17 19 21 23 24 24 23 23 22 21 20 19 19 18 17 17 18 19 20 21 21 22 23 23 22 22 22 22 21 21 21 20
13 13 12 12 12 12 11 11 12 12 12 12 11 9 11 13 14 13 14 14 14 15 15 15 16 17 18 19 18 17 17 18 19 20 21 23 24 24 24 24 24 23 23 22 22 21 21 21 21 21 21 21 22 24 24 25 25 24 24 23 22 22 21
15 13 11 11 11 10 9 8 9 10 10 11 11 12 12 14 16 17 18 18 18 19 19 19 18 18 18 20 21 22 22 22 22 22 22 22 23 24 25 25 26 27 26 26 26 25 25 25 25 24 23 23 24 25 26 26 26 26 25 24 24 23 22
15 14 13 12 11 10 9 8 8 8 8 9 10 11 12 13 14 16 18 20 22 23 23 22 22 22 21 21 21 23 25 26 26 26 26 26 26 26 27 27 28 28 28 29 30 29 29 28 27 27 27 27 27 27 28 28 27 25 25 24 24 23 22
13 13 12 12 11 10 9 9 9 10 9 9 9 10 10 10 10 11 12 14 17 20 22 23 24 24 25 24 23 23 26 28 30 30 30 30 30 30 30 31 32 31 30 31 31 30 30 29 27 28 29 29 27 28 28 28 26 23 23 24 23 23 22
8 7 8 8 8 9 8 8 9 10 10 10 10 10 10 10 10 10 10 10 12 14 16 18 21 23 25 26 26 27 28 29 31 32 33 33 33 33 33 34 36 35 32 30 30 31 32 30 28 29 30 28 26 26 26 25 24 22 21 22 23 23 22
4 3 4 5 5 6 7 7 8 9 9 10 11 10 11 11 11 11 12 12 13 14 15 16 17 19 22 24 27 29 30 30 30 30 32 33 34 35 35 36 38 36 33 32 32 32 33 32 31 31 29 26 25 26 25 24 24 23 22 21 22 21 19
6 6 6 7 7 8 9 10 11 11 12 12 13 13 14 14 14 14 14 14 15 16 17 17 16 17 19 21 23 26 29 30 30 30 31 32 33 35 36 37 38 38 38 36 34 33 33 32 32 32 30 28 28 28 26 25 24 23 22 20 19 17 16
9 10 11 11 12 13 14 15 15 16 16 17 17 18 19 20 20 20 19 19 19 18 19 19 19 18 18 19 21 23 25 27 29 29 29 31 32 34 34 35 35 36 37 36 33 32 32 32 32 34 34 32 32 30 26 23 23 21 20 18 16 15 15
12 13 14 15 15 16 18 18 19 20 21 21 22 22 23 24 25 25 25 24 24 24 23 23 23 22 21 21 22 24 26 27 27 27 27 29 31 32 33 32 32 32 34 34 33 33 33 34 35 36 33 30 27 25 22 22 23 21 18 16 16 15 14
14 15 15 16 17 18 19 20 21 22 23 24 25 25 26 26 27 28 28 28 28 29 28 28 28 27 26 25 24 25 28 29 28 28 29 30 31 32 32 30 29 30 32 33 35 36 37 37 38 38 35 29 22 19 19 21 21 19 17 16 15 13 11
16 17 17 17 18 19 20 21 21 22 23 24 25 25 26 27 27 29 30 30 30 30 30 31 31 30 30 30 28 27 28 28 28 28 30 31 31 31 30 29 28 29 30 31 34 36 38 39 39 39 36 28 21 20 20 20 19 17 16 15 13 11 10
17 18 18 18 19 19 19 20 20 20 21 21 22 23 24 24 25 27 28 29 30 29 29 30 31 31 31 31 31 30 29 28 27 28 30 31 31 30 29 28 27 27 28 29 30 31 33 35 36 33 28 24 23 22 22 20 19 18 16 14 12 11 11

ECMWFFLT1_850_spd_030.txt.gz
Wind_Speed
14 14 14 14 13 12 11 10 10 9 8 8 7 7 7 8 9 9 8 9 10 10 10 9 10 11 12 12 13 13 12 12 11 11 13 13 13 15 14 11 7 6 9 10 8 10 13 15 14 12 12 12 12 12 13 13 12 10 9 9 9 9 9
15 15 15 14 13 12 12 11 10 9 8 8 7 6 6 6 7 7 7 8 9 9 9 10 11 11 13 13 12 12 12 12 12 11 11 11 12 13 13 12 9 6 9 11 10 10 11 13 15 15 14 13 12 12 12 12 11 10 9 8 8 8 9
16 16 15 14 13 12 11 10 10 9 8 8 7 7 6 5 5 5 5 6 7 8 9 10 11 11 12 13 11 11 11 11 11 11 11 11 11 12 12 12 11 8 9 11 13 13 11 9 11 15 14 12 12 12 12 11 10 10 9 9 8 7 7
15 15 15 14 13 12 11 10 10 9 8 7 6 6 5 5 5 5 5 5 6 6 8 9 10 10 11 12 12 12 11 11 10 10 11 11 11 11 12 12 11 9 8 8 11 14 13 10 10 15 14 11 10 11 11 10 9 9 9 9 8 8 8
12 13 13 13 12 12 10 9 8 7 6 5 5 5 5 5 6 6 5 5 5 5 7 8 8 9 10 11 11 11 11 11 10 11 11 11 11 11 11 12 10 9 8 6 8 12 12 10 9 13 15 12 11 12 11 9 8 8 9 9 9 9 9
10 10 11 11 10 10 8 6 6 5 4 4 4 4 5 5 6 6 7 6 5 5 6 7 7 8 9 9 10 10 9 9 9 10 10 10 10 9 10 11 11 10 9 7 9 10 11 10 9 12 15 13 12 12 11 9 8 8 8 9 10 10 10
9 9 9 8 8 8 6 5 5 4 4 4 3 2 3 4 4 5 7 7 6 6 6 6 6 7 8 9 9 9 8 8 8 8 9 10 10 9 10 12 12 11 10 9 10 10 10 10 10 11 15 15 13 12 11 9 7 6 7 8 9 10 9
9 8 7 6 6 6 5 4 4 4 4 3 2 1 1 2 3 4 5 7 7 6 6 6 4 4 8 10 10 9 9 9 8 8 9 10 11 11 11 12 13 13 11 11 10 9 8 8 8 9 11 13 14 13 10 9 7 6 6 7 7 8 8
9 8 8 7 6 6 4 3 3 3 3 3 2 1 2 3 4 4 5 6 6 7 7 6 4 3 6 10 9 9 9 9 8 8 9 10 10 10 11 13 15 14 12 11 10 9 7 7 6 6 6 6 9 13 13 10 8 7 6 6 6 6 7
11 10 9 8 7 6 4 4 4 3 2 2 2 2 2 3 4 5 4 5 6 7 7 6 5 4 6 8 8 8 8 8 8 9 9 9 9 9 11 14 15 15 14 12 11 10 9 7 5 5 5 1 1 9 14 12 9 8 7 6 6 6 6
12 11 10 8 8 7 5 5 4 2 1 1 2 2 2 2 3 3 3 4 5 5 5 5 4 4 5 5 5 6 5 6 8 9 8 8 8 9 10 12 13 14 14 13 12 11 10 8 6 7 7 2 3 2 8 11 11 10 8 7 6 5 6
12 12 10 9 9 8 6 5 4 2 1 1 1 2 2 2 3 3 3 5 6 5 6 5 5 5 4 3 3 4 4 6 8 8 7 6 7 8 8 8 9 10 11 12 12 13 12 9 7 9 8 3 2 1 3 6 8 8 9 8 5 4 5
12 12 11 10 9 8 6 4 3 2 0 1 1 1 1 2 3 4 6 7 7 6 7 7 6 6 5 5 4 5 6 7 8 7 7 7 8 9 8 8 7 7 9 11 12 13 13 11 9 10 10 6 3 3 3 2 3 4 8 9 7 5 6
13 12 10 9 8 7 6 5 3 3 1 1 1 1 2 3 4 6 8 8 8 8 8 8 7 6 5 5 6 6 7 7 7 6 7 7 8 9 8 6 6 7 8 10 11 13 14 13 11 11 12 9 7 5 6 5 2 2 6 9 9 8 7
14 13 11 9 8 7 7 5 3 2 2 2 2 3 4 4 5 7 9 8 8 9 8 7 7 5 5 5 6 7 7 6 5 5 6 6 7 6 5 4 4 6 7 8 10 12 13 12 12 12 13 11 9 8 8 9 8 5 4 6 9 9 8
15 13 11 9 7 7 7 5 3 2 2 3 4 6 5 5 6 8 9 9 8 7 6 5 5 4 4 4 5 7 7 6 5 4 4 4 5 5 4 4 4 5 7 7 9 11 12 11 11 12 13 11 10 10 10 11 11 10 6 5 7 9 9
16 13 11 9 7 7 7 6 4 3 3 5 6 6 5 5 5 7 9 9 7 6 5 4 3 4 5 5 5 7 8 8 7 6 5 5 5 6 6 6 6 6 7 8 9 10 11 11 11 12 12 11 10 10 11 12 13 13 10 7 7 8 9
15 12 9 7 6 7 7 6 5 5 5 6 7 6 5 5 5 7 9 8 7 5 4 4 4 4 5 6 6 7 8 9 9 9 8 8 8 9 9 8 7 7 7 8 9 10 11 11 11 11 10 10 10 10 11 12 14 15 14 11 9 8 9
15 12 9 7 6 6 8 7 5 6 6 7 7 7 7 7 6 6 7 7 6 5 4 4 4 5 6 7 7 7 9 10 10 9 8 7 7 8 10 10 9 8 8 8 9 9 9 9 9 10 10 10 10 10 11 13 15 16 16 14 11 10 10
15 13 10 8 6 7 8 8 6 7 8 8 9 9 9 8 8 7 6 5 5 5 4 4 4 5 6 6 6 7 9 9 9 8 7 6 5 6 8 11 10 9 9 9 9 9 10 10 11 11 10 10 10 10 10 12 13 14 15 14 13 12 11
13 12 12 9 7 7 9 9 7 8 9 9 9 9 8 7 7 7 7 6 5 5 4 3 4 4 5 6 6 7 8 9 9 8 7 7 6 6 7 9 10 10 10 10 11 11 11 11 10 10 10 11 10 10 10 10 11 13 14 15 15 14 13
16 13 11 10 10 11 10 9 9 10 10 10 10 8 6 5 5 6 6 6 6 6 5 3 2 4 5 5 6 7 8 9 9 8 8 8 8 8 8 8 9 9 10 10 11 11 11 11 11 11 12 12 11 11 12 12 13 15 16 16 16 16 15
19 14 12 11 12 13 12 11 11 11 12 11 9 8 6 5 4 4 4 4 5 5 6 5 3 2 3 5 6 7 7 7 8 8 8 9 9 9 9 10 10 10 10 11 11 12 12 13 14 14 14 14 14 13 14 15 16 17 18 19 19 19 19
19 15 14 15 15 14 13 13 13 12 13 13 11 9 7 6 6 5 4 3 3 4 5 5 4 3 3 3 5 7 7 8 8 9 9 10 10 10 11 11 12 13 13 13 14 14 14 15 15 16 16 16 16 16 16 17 18 19 20 21 21 22 22
19 18 18 17 16 14 13 13 13 13 14 14 13 11 9 8 8 7 6 5 4 4 4 3 3 2 2 3 4 5 6 7 8 9 10 10 11 11 12 13 14 15 15 16 16 16 16 16 16 17 17 17 17 17 18 18 19 19 20 21 21 22 23
19 20 20 18 17 15 14 14 14 14 14 14 13 12 11 10 9 8 8 8 7 7 7 7 7 7 7 7 7 7 7 8 9 9 10 11 11 11 12 13 14 15 16 17 18 18 18 19 19 19 18 19 19 19 19 19 19 20 20 21 22 23 23
17 18 18 17 17 16 14 14 14 13 13 13 12 13 13 12 10 9 10 10 10 11 11 11 12 12 12 12 11 11 11 12 12 13 13 13 14 14 14 14 15 15 15 16 18 19 19 20 20 21 20 20 21 21 21 22 22 22 22 22 23 24 25
16 16 15 15 17 17 15 14 14 13 13 13 12 12 12 12 11 10 11 12 12 13 13 14 14 14 15 15 14 14 14 15 15 16 16 17 18 18 19 19 19 19 18 18 19 20 21 22 23 23 23 23 23 23 24 25 25 26 25 25 25 26 26
15 14 13 12 13 14 14 13 13 12 12 13 13 12 12 12 11 11 11 12 13 14 15 15 16 16 17 17 17 17 18 18 19 19 19 19 20 21 22 23 23 24 23 22 22 23 24 25 26 26 26 26 26 26 27 27 28 29 29 29 29 29 30
12 12 10 9 10 11 11 11 11 10 10 11 12 11 11 11 11 11 11 11 12 14 15 17 18 19 20 20 21 21 22 23 24 25 25 24 24 24 24 25 26 26 27 26 26 26 27 28 29 29 30 30 30 31 31 30 30 30 31 32 33 33 33
8 6 4 4 5 6 6 6 7 7 7 8 9 9 9 9 10 11 11 12 12 13 15 17 18 20 21 22 23 24 25 26 27 28 28 29 29 29 29 29 29 29 29 29 28 29 29 31 32 32 33 33 33 34 33 32 32 33 34 35 35 34 34
4 2 2 1 3 4 5 5 5 3 2 4 5 7 8 9 10 11 12 13 13 14 15 16 17 18 20 21 22 23 24 26 27 27 29 30 30 30 31 31 32 32 32 32 30 29 29 30 31 31 32 33 34 35 34 33 34 35 36 35 34 32 32
3 4 4 2 4 5 5 7 8 8 9 9 7 7 9 10 11 12 13 15 15 16 17 17 18 19 20 21 23 24 25 27 28 29 30 31 32 32 31 31 31 31 32 32 31 29 28 28 28 29 29 31 33 33 32 32 32 32 33 33 32 31 31
6 7 8 8 8 9 9 10 10 10 12 13 12 11 12 14 15 16 17 18 19 20 21 22 23 23 24 25 26 28 29 30 31 33 33 33 34 35 35 34 33 31 30 30 30 30 28 27 27 27 29 30 31 31 30 29 28 28 28 29 30 30 29
7 8 9 10 10 11 12 13 13 13 14 15 15 16 17 18 19 20 20 21 22 23 24 26 27 27 28 29 30 31 32 33 34 36 37 37 37 38 38 38 37 35 33 32 31 31 30 29 28 29 29 29 29 30 30 28 27 26 26 27 29 29 28
10 10 11 12 12 12 13 14 15 15 16 17 17 18 19 20 21 22 23 23 24 24 25 26 26 27 28 29 30 31 33 34 35 37 38 39 40 40 41 41 40 40 38 37 36 35 34 32 32 32 31 29 27 27 28 28 27 26 27 27 28 29 28
11 11 12 13 13 14 14 15 16 17 19 19 20 20 21 22 23 24 25 25 24 24 25 25 25 26 26 27 27 28 30 32 33 35 37 38 39 40 41 41 41 41 41 40 40 39 38 37 36 35 34 31 28 25 26 28 28 28 28 28 29 29 29

ECMWFFLT1_850_spd_033.txt.gz
Wind_Speed
13 12 11 11 11 11 10 10 9 8 7 6 6 7 7 8 9 10 11 11 11 11 11 13 13 14 13 13 15 16 15 13 12 13 16 16 17 16 13 11 5 5 13 14 10 12 14 13 13 13 14 13 12 12 11 10 10 10 11 11 10 10 9
13 12 12 12 12 11 10 9 8 7 6 6 6 6 6 7 8 10 10 10 10 11 12 12 13 14 14 14 15 16 15 13 11 12 14 14 14 14 14 12 7 7 13 14 9 9 12 13 13 14 16 15 13 12 10 10 10 10 11 10 10 9 9
14 14 14 13 12 11 10 8 8 7 7 6 6 6 6 6 7 8 8 8 9 10 11 11 12 13 14 15 15 15 14 13 12 11 12 12 11 12 14 14 11 10 14 16 12 11 11 11 12 13 14 14 13 12 10 10 9 10 10 10 9 8 8
15 16 15 14 13 11 10 9 7 7 6 6 6 6 6 6 7 7 7 8 8 9 9 10 11 12 13 14 14 14 14 13 13 12 12 12 11 12 14 15 14 11 11 13 13 13 12 10 12 14 12 11 13 12 10 10 10 10 10 9 9 8 9
15 16 15 14 13 12 10 9 7 6 6 5 5 5 6 6 6 7 7 7 7 7 8 9 11 11 11 13 13 13 13 13 13 12 12 13 12 13 14 15 16 12 8 9 11 12 12 9 10 14 13 11 12 12 11 10 10 10 10 10 9 9 10
15 16 15 14 13 12 11 9 8 7 6 5 5 5 5 6 6 7 6 6 7 8 8 9 10 11 11 12 13 12 12 12 11 11 11 12 11 12 13 13 14 11 8 7 8 9 11 9 10 14 14 12 13 13 11 10 10 10 10 10 11 10 10
16 17 16 15 15 14 13 11 11 9 8 7 7 6 6 6 6 7 7 7 8 9 9 9 9 9 9 10 12 12 11 10 9 9 10 11 11 11 12 11 11 10 9 7 6 8 10 9 10 13 14 14 14 12 11 10 10 9 9 10 11 11 11
17 18 17 16 15 14 12 12 11 11 10 8 7 7 7 6 6 7 8 9 9 9 9 9 8 8 8 9 10 10 10 8 8 8 10 11 11 11 11 10 11 11 10 9 7 7 8 8 8 9 11 13 15 13 10 9 8 7 8 9 9 10 10
17 18 17 16 14 12 12 11 11 10 9 7 6 7 7 7 7 7 9 9 10 9 9 8 7 7 8 9 9 9 9 9 9 9 10 10 11 11 10 10 12 12 11 10 10 9 8 8 6 7 7 7 11 14 11 8 8 8 8 9 9 8 10
17 17 16 15 14 13 12 11 10 9 8 6 5 7 7 7 7 8 9 10 11 10 9 9 7 6 8 10 11 10 9 10 9 9 9 9 10 10 10 10 13 13 11 11 11 10 9 8 6 5 5 3 5 12 14 11 10 10 9 9 9 8 9
16 15 14 13 14 13 12 12 10 8 7 5 5 7 8 7 7 8 8 9 10 10 11 10 9 8 8 10 11 10 10 10 10 9 8 8 8 9 9 10 12 13 12 11 12 11 10 8 6 6 6 4 2 7 12 13 12 12 10 9 9 9 9
15 14 13 13 13 12 11 11 10 8 6 5 6 8 8 7 6 6 7 8 8 9 11 10 10 10 9 9 10 10 10 10 9 8 7 7 7 7 7 8 11 12 12 11 12 13 11 8 8 8 7 6 4 5 9 12 11 11 11 9 9 9 9
14 12 11 12 12 11 11 10 8 7 5 4 5 7 8 7 6 6 8 9 8 8 10 10 11 11 10 10 10 10 10 9 9 8 7 7 8 8 7 7 8 10 11 12 13 14 12 9 9 10 8 7 6 7 8 8 7 8 10 9 9 8 9
12 11 11 11 11 11 10 9 7 6 5 4 4 6 7 7 7 9 11 10 8 9 9 9 10 10 9 9 10 10 10 10 9 9 9 10 10 10 9 8 8 9 10 11 13 14 12 10 10 10 9 8 8 7 6 6 5 7 8 8 8 8 8
12 11 11 11 11 10 10 8 7 6 4 3 3 5 6 6 8 11 12 11 10 10 10 9 9 9 9 10 11 12 12 11 11 11 11 11 11 10 9 8 6 7 9 10 12 13 13 12 11 11 9 9 8 7 6 6 5 6 7 7 7 7 8
13 13 12 11 11 10 9 8 7 5 3 2 3 5 6 6 9 12 12 11 11 10 10 10 10 10 10 11 12 12 12 12 11 11 11 10 10 9 8 8 6 6 7 8 10 13 13 13 12 11 10 9 8 7 7 7 7 7 7 7 6 8 9
15 14 12 11 10 10 10 9 7 5 3 3 4 5 5 6 9 12 12 11 11 10 9 9 9 10 10 11 11 12 12 12 11 10 9 8 8 7 6 6 5 5 5 5 7 11 13 13 12 11 11 10 9 8 8 9 10 10 10 9 7 8 9
15 14 12 10 10 10 10 9 7 4 3 4 5 5 5 6 8 12 13 12 10 9 9 8 8 9 10 11 11 11 11 11 10 9 8 7 7 6 6 5 5 5 6 5 6 8 11 12 11 10 10 10 10 9 9 11 12 13 13 12 10 9 10
16 15 13 11 11 11 10 8 6 4 4 5 5 5 6 6 7 10 12 12 10 9 8 8 8 9 10 10 10 11 11 11 10 9 9 8 7 7 7 6 6 6 7 6 6 7 8 9 9 9 8 8 9 9 10 11 13 14 14 14 13 12 11
16 16 14 12 12 11 10 8 6 5 6 6 6 7 8 8 8 9 10 10 10 8 7 7 7 8 9 9 9 10 11 12 11 10 10 9 8 8 8 9 8 8 8 8 7 7 7 7 6 6 6 7 8 8 9 10 11 13 14 15 15 15 14
17 16 15 14 13 11 10 9 8 7 8 9 9 10 9 9 8 8 8 8 8 7 7 6 6 6 7 7 7 9 11 12 12 11 10 9 8 8 9 11 11 10 10 10 9 8 7 7 6 6 7 8 8 8 8 8 9 10 11 12 13 14 15
18 17 16 14 12 11 11 10 9 10 11 12 12 11 9 8 8 7 8 8 8 8 7 6 6 6 6 5 5 7 9 11 11 10 9 9 8 8 8 10 11 11 11 10 10 9 9 8 8 8 8 8 8 8 8 8 9 9 10 11 13 14 16
20 18 15 12 10 11 11 11 11 12 14 14 13 11 9 8 8 8 8 8 8 9 8 8 7 7 7 7 6 6 8 9 9 9 8 8 8 7 7 8 9 10 10 10 10 9 9 9 9 9 9 9 9 9 9 10 11 11 11 13 13 14 16
20 21 20 15 12 13 14 13 13 14 15 15 14 12 10 9 9 9 9 9 9 9 9 9 9 8 9 9 8 7 8 8 8 7 7 6 6 7 7 8 8 9 9 9 10 10 10 10 10 11 11 11 10 10 10 11 12 13 14 15 16 17 18
20 20 20 16 13 15 16 16 15 15 16 16 14 12 10 8 9 9 9 9 9 10 9 9 9 8 8 9 9 9 9 9 9 9 9 8 8 8 9 9 9 9 10 10 11 11 12 12 13 13 12 12 12 12 12 12 12 13 14 15 17 18 18
21 19 17 16 15 15 16 16 15 15 16 15 14 13 10 8 8 9 9 9 9 9 9 9 8 8 8 8 8 9 9 9 10 10 10 10 11 11 11 11 11 11 12 12 13 13 14 14 14 15 15 14 14 14 13 13 13 13 14 15 16 17 18
18 18 17 16 16 16 16 16 16 15 14 13 13 12 11 9 9 9 10 10 10 10 9 9 9 9 8 8 8 8 9 9 9 10 10 11 11 12 12 13 13 13 14 14 14 14 14 15 15 16 17 17 17 16 16 16 15 15 16 16 17 18 18
16 17 17 17 17 17 16 16 15 15 14 13 12 11 10 9 9 10 11 11 12 12 11 11 11 10 10 10 10 9 10 10 10 10 11 11 12 13 13 14 14 15 15 15 15 16 16 16 17 17 18 19 19 19 19 19 18 18 19 19 20 21 21
15 16 16 16 16 16 16 15 15 14 13 13 12 10 10 9 9 9 9 10 11 12 12 12 12 12 11 11 11 11 11 12 12 12 13 13 14 15 15 16 17 17 18 18 18 19 19 20 20 20 20 21 21 21 21 21 21 22 22 23 23 24 25
15 14 13 13 14 14 14 14 15 14 13 14 13 12 11 9 8 7 7 8 9 10 11 11 12 13 13 14 14 14 15 15 16 16 17 18 18 19 19 20 20 21 21 21 22 23 23 24 24 24 24 25 25 25 25 25 25 26 26 26 27 27 28
13 12 11 11 12 12 10 9 11 12 12 12 12 12 10 9 8 7 7 7 9 10 11 12 13 14 15 16 17 18 18 19 20 20 21 21 22 22 23 23 24 24 25 25 26 26 27 27 27 28 28 29 29 29 29 29 30 30 30 30 30 30 29
9 8 8 8 8 7 5 5 7 8 7 7 8 8 8 8 9 8 7 7 8 10 12 14 15 15 16 17 18 18 19 19 20 20 21 21 21 22 22 23 24 24 25 26 27 28 28 29 29 29 30 31 32 33 32 32 32 32 31 31 30 29 29
5 4 4 4 4 3 2 3 4 5 5 6 7 8 9 9 8 7 6 6 8 11 13 14 15 16 17 17 18 19 19 20 21 22 22 23 23 23 24 24 24 24 24 25 26 27 28 28 28 29 29 31 32 32 32 32 32 31 30 30 28 28 29
4 3 1 1 1 1 0 1 2 3 4 6 7 8 11 11 10 10 10 10 12 14 15 16 16 17 18 19 20 21 22 23 25 26 27 28 29 29 30 30 30 29 29 28 28 28 28 28 29 29 30 31 31 31 30 30 31 30 29 28 27 27 28
4 3 2 2 2 2 3 2 2 3 4 6 7 7 9 10 10 12 14 14 16 19 20 21 21 22 23 23 23 24 25 27 28 30 31 32 33 34 34 35 36 36 36 36 35 34 33 32 32 32 32 31 31 31 31 30 31 30 30 30 28 27 27
5 5 4 3 3 4 4 4 4 4 5 6 7 8 9 10 11 12 13 15 17 19 20 21 22 23 24 24 25 26 27 29 31 32 34 35 36 37 38 38 38 39 39 40 40 40 40 39 38 37 36 34 32 32 33 33 33 33 33 33 31 29 28
6 6 6 5 5 5 5 5 5 5 6 6 7 8 9 10 11 12 13 14 16 17 18 19 19 20 22 23 24 25 26 28 30 31 33 34 35 36 38 39 39 39 40 40 41 42 42 42 42 41 40 38 35 34 35 36 36 36 35 35 35 33 32